Regional Weather Roundup
Issued by NWS

Home | Current Version | Previous Version | Text Only | Print | Product List | Glossary On
Versions: 1 2 3 4 5 6 7 8 9 10 11 12 13 14 15 16 17 18 19 20 21 22 23 24 25 26 27 28 29 30 31 32 33 34 35 36 37 38 39 40 41 42 43 44 45 46 47 48 49 50
000
ASUS42 KTBW 071516
RWRFL
FLORIDA REGIONAL WEATHER ROUNDUP
NATIONAL WEATHER SERVICE TAMPA BAY RUSKIN FL
1000 AM EST WED DEC 07 2016

NOTE: "FAIR" INDICATES FEW OR NO CLOUDS BELOW 12,000 FEET WITH NO
SIGNIFICANT WEATHER AND/OR OBSTRUCTIONS TO VISIBILITY.

FLZ001>010-012>015-112-114-115-071600-
PANHANDLE FLORIDA

CITY           SKY/WX    TMP DP  RH WIND       PRES   REMARKS
PENSACOLA      NOT AVBL
MILTON NAS     CLOUDY    55  51  86 W5        30.12R
VALPARAISO     CLOUDY    57  52  82 W8        30.11R
TRI COUNTY     CLOUDY    55  52  89 W3        30.12R
PANAMA CITY    CLOUDY    57  54  88 VRB3      30.10R
TYNDALL AFB    CLOUDY    57  54  88 N8        30.10R

STATION/POSITION SKY/WX   TEMP    WIND        PRES    WAVE   SWELL
                          AIR SEA DIR/SP/G            HT/PER HT/PER
                          (F)     (DEG/KT/KT) (MB)    (FT/S) (FT/S)
30.1N   87.6W              58 69  350/  6/  8 1019.3    2/ 7   2/ 7
29.2N   88.2W              65 75   20/  8/ 12 1019.3R
28.8N   86.0W              71 75              1018.3    4/ 8   3/ 8
PANAMA CITY BEAC           56 68   10/  6/  7 1019.6R
TOWER C                    61      40/  7/  8 1019.3R
28.5N   84.5W              71 74   20/  6/  8 1017.9    4/ 8   3/ 8

$$
FLZ011-016>038-118-127-128-134-139-239-071600-
NORTH FLORIDA

CITY           SKY/WX    TMP DP  RH WIND       PRES   REMARKS
TALLAHASSEE    NOT AVBL
PERRY          MOSUNNY   58  57  97 CALM      30.10R
CROSS CITY     MOSUNNY   59  57  94 N3        30.10R
LAKE CITY      FAIR      59  59 100 CALM      30.09R
GAINESVILLE    NOT AVBL
WILLISTON      SUNNY     63  63 100 NW6       30.09R
PALATKA        FAIR      59  59 100 NW5       30.09R
MAYPORT NAS    PTSUNNY   65  57  75 W3        30.08R
JACKSONVILLE   NOT AVBL
FERNANDINA BEA FAIR      64  57  77 NW6       30.06R

STATION/POSITION SKY/WX   TEMP    WIND        PRES    WAVE   SWELL
                          AIR SEA DIR/SP/G            HT/PER HT/PER
                          (F)     (DEG/KT/KT) (MB)    (FT/S) (FT/S)
SHELL POINT      NOT AVBL
KEATON BEACH               59     340/  3/  4 1018.4R
CEDAR KEY                  63      10/  4/  5 1018.8R
FERNANDINA                 61 69  310/  4/  5 1018.2
30.7N   81.3W                 65                N/A     1/ 7
MAYPORT                    62 67  290/  5/  6 1018.4R
31.4N   80.9W              61 64   10/ 12/ 14 1017.2    2/ 7   2/ 7
ST AUGUSTINE               61 66  310/  5/  7 1018.9R

$$
FLZ040-043>046-052-053-057-058-063-144-071600-
INTERIOR CENTRAL FLORIDA

CITY           SKY/WX    TMP DP  RH WIND       PRES   REMARKS
THE VILLAGES     N/A     63  63 100 CALM      29.99R
ORLANDO INTL   NOT AVBL
WINTER HAVEN   MOSUNNY   66  61  84 N5        30.09R
LAKELAND       PTSUNNY   63  63 100 CALM      30.09R
BARTOW         PTSUNNY   66  66 100 CALM      30.09R
OKEECHOBEE     PTSUNNY   68  64  88 CALM      30.09S

$$
FLZ041-047-054-059-064-141-147-071600-
EAST CENTRAL FLORIDA

CITY           SKY/WX    TMP DP  RH WIND       PRES   REMARKS
DAYTONA BEACH  NOT AVBL
DELAND         CLOUDY    61  59  94 N6        30.08R
TITUSVILLE     SUNNY     66  64  94 W6        30.07R
MELBOURNE      NOT AVBL
VERO BEACH     MOSUNNY   66  64  93 W5        30.09R
STUART         MOSUNNY   75  68  78 NW6       30.09R

STATION/POSITION SKY/WX   TEMP    WIND        PRES    WAVE   SWELL
                          AIR SEA DIR/SP/G            HT/PER HT/PER
                          (F)     (DEG/KT/KT) (MB)    (FT/S) (FT/S)
TRIDENT PIER               67 73  260/  5/  6 1017.8R
28.4N   80.5W                 72                N/A     1/13

$$
FLZ050-056-061-142-242-148-248-149-249-151-251-155-255-
160-260-071600-
WEST CENTRAL FLORIDA

CITY           SKY/WX    TMP DP  RH WIND       PRES   REMARKS
CRYSTAL RIVER  FAIR      66  55  68 N3        30.09R
INVERNESS      FAIR      64  61  88 N3        30.09R
BROOKSVILLE    NOT AVBL
CLEARWATER AIR FAIR      68  63  83 CALM      30.07R
ST PETE CLEARW NOT AVBL
TAMPA INTL     NOT AVBL
TAMPA EXEC     SUNNY     70  64  83 CALM      30.09R
PLANT CITY     MOSUNNY   66  66 100 CALM      30.10R FOG
PETER O KNIGHT SUNNY     72  66  83 NE3       30.08R
ST PETERSBURG  NOT AVBL
SARASOTA       NOT AVBL
VENICE         FAIR      72  68  88 E6        30.09R

STATION/POSITION SKY/WX   TEMP    WIND        PRES    WAVE   SWELL
                          AIR SEA DIR/SP/G            HT/PER HT/PER
                          (F)     (DEG/KT/KT) (MB)    (FT/S) (FT/S)
CLEARWATER BEACH           69 70  360/  6/  7 1018.5R
MIDDLE TAMPA BAY           67      60/  8/  9 1018.9R
VENICE                     69 72   40/  4/  6 1018.0R

$$
FLZ066-069-070-075>078-162-262-165-265-071600-
SOUTHWEST FLORIDA AND KEYS

CITY           SKY/WX    TMP DP  RH WIND       PRES   REMARKS
FT MYERS       NOT AVBL
MARCO ISLAND   PTSUNNY   73  70  88 NE12      30.07S
KEY WEST NAS   CLOUDY    77  74  90 SE3       30.07R
KEY WEST INTL  NOT AVBL

STATION/POSITION SKY/WX   TEMP    WIND        PRES    WAVE   SWELL
                          AIR SEA DIR/SP/G            HT/PER HT/PER
                          (F)     (DEG/KT/KT) (MB)    (FT/S) (FT/S)
NAPLES                        74              1018.3R
26.0N   85.6W              74 77   40/  8/ 10 1018.4    4/ 7   5/ 7
DRY TORTUGAS               76     110/  3/  3 1018.1R
SAND KEY                   77     180/  3/  4 1018.2
LONG KEY                   79 79     CALM     1018.2R

$$
FLZ067-068-071>074-168-172>174-071600-
SOUTHEAST FLORIDA

CITY           SKY/WX    TMP DP  RH WIND       PRES   REMARKS
FT LAUDERDALE  NOT AVBL
POMPANO BEACH  CLOUDY    73  71  93 NW3       30.07R FOG
OPA LOCKA      PTSUNNY   82  72  71 N5        30.07R
MIAMI          NOT AVBL
HOMESTEAD      MOSUNNY   79  79 100 NW3       30.06S

STATION/POSITION SKY/WX   TEMP    WIND        PRES    WAVE   SWELL
                          AIR SEA DIR/SP/G            HT/PER HT/PER
                          (F)     (DEG/KT/KT) (MB)    (FT/S) (FT/S)
PORT EVERGLADES            77     310/  7/  9 1018.0R
VIRGINIA KEY               78 83  220/  3/  4 1018.5R
LAKE WORTH                 72 78  330/  8/  9 1017.8R
FOWEY ROCKS                77 78  310/  1/  2 1018.6R

$$




USA.gov is the U.S. government's official web portal to all federal, state and local government web resources and services.